Flag for U.S.A. Weather past 2 weeks in Baltimore, Maryland, U.S.A.

Now
68 °F

Passing clouds.


Feels Like: 68 °F
Forecast: 64 / 80 °F
Wind: No wind

Location: Baltimore-Washington International Airport

Current Time: Aug 30, 2014 at 2:42:34 AM

Latest Report: Aug 30, 2014 at 1:54 AM


Visibility: 10 mi

Pressure: 30.22 "Hg

Humidity: 78%

Dew point: 61 °F

Location of BaltimoreLocation

Historic Weather in Baltimore — Graph

°F

Baltimore temperature yesterday

Maximum temperature yesterday: 76 °F (at 12:54 PM)
Minimum temperature yesterday: 58 °F (at 6:54 AM)
Average temperature yesterday: 68 °F

Past Weeks' High & Low Weather Summary

 TemperatureHumidityPressure
High88 °F (Aug 27, 2:54 PM)97% (Aug 21, 5:54 AM)30.22 "Hg (Aug 21, 5:54 AM)
Low55 °F (Aug 15, 5:54 AM)35% (Aug 15, 4:54 PM)29.81 "Hg (Aug 19, 3:54 AM)
Average73 °F69%30.01 "Hg
* Reported Aug 15 1:54 AM — Aug 30 1:54 AM, Baltimore, Weather by CustomWeather, © 2014

Note: Actual official high and low records may vary slightly from our data, if they occured in-between our weather recording intervals... More about our weather records

Advertising

Baltimore weather history for previous 24 hours

 ConditionsComfort  
Time TempWeatherWind HumidityBarometerVisibility
1:54 AM
Aug 30
68 °FPassing clouds.No wind78%30.22 "Hg10 mi
12:54 AM68 °FPassing clouds.3 mph76%30.22 "Hg10 mi
11:54 PM
Aug 29
66 °FPartly cloudy.3 mph78%30.22 "Hg10 mi
10:54 PM66 °FPassing clouds.3 mph75%30.22 "Hg10 mi
9:54 PM65 °FPassing clouds.No wind76%30.20 "Hg10 mi
8:54 PM68 °FPassing clouds.No wind65%30.18 "Hg10 mi
7:54 PM71 °FPartly sunny.No wind59%30.17 "Hg10 mi
6:54 PM75 °FPartly sunny.8 mph45%30.16 "Hg10 mi
5:54 PM76 °FPartly sunny.9 mph42%30.16 "Hg10 mi
4:54 PM76 °FPartly sunny.6 mph40%30.16 "Hg10 mi
2:54 PM76 °FPartly sunny.3 mph39%30.16 "Hg10 mi
1:54 PM76 °FPartly sunny.6 mph40%30.17 "Hg10 mi
12:54 PM76 °FPartly sunny.7 mph40%30.19 "Hg10 mi
11:54 AM74 °FPartly sunny.7 mph45%30.20 "Hg10 mi
10:54 AM71 °FPartly sunny.6 mph47%30.21 "Hg10 mi
9:54 AM69 °FPartly sunny.10 mph51%30.20 "Hg10 mi
8:54 AM68 °FPartly sunny.8 mph55%30.19 "Hg10 mi
7:54 AM62 °FScattered clouds.No wind67%30.19 "Hg10 mi
6:54 AM58 °FPassing clouds.5 mph78%30.16 "Hg10 mi
5:54 AM59 °FPassing clouds.6 mph72%30.14 "Hg10 mi
4:54 AM60 °FPassing clouds.5 mph69%30.13 "Hg10 mi
3:54 AM60 °FPassing clouds.No wind67%30.12 "Hg10 mi
2:54 AM64 °FPassing clouds.5 mph58%30.11 "Hg10 mi
Weather by CustomWeather, © 2014

See weather overviewHow to use our weather pages